User: anonymous   Login
Location: ??????
(42.0089°N, 44.3281°E)
Time: 05:38:44
(UTC+00:00)
Language:

Cosmos 44 - Orbit

View from above orbital plane
View from above orbital plane
View from above satellite
View from above satellite

Ground track
Ground track

The orbit data is extracted from the following two-line orbital elements,

1 00876U 64053A   22021.44590543 -.00000062  00000-0  12986-4 0  9999
2 00876  65.0611  28.4930 0137620 180.1161 179.9934 14.63839468 53209
Epoch (UTC): 21 January 2022 10:42:06
Eccentricity: 0.0137620
inclination: 65.0611°
perigee height: 583 km
apogee height: 778 km
right ascension of ascending node: 28.4930°
argument of perigee: 180.1161°
revolutions per day: 14.63839468
mean anomaly at epoch: 179.9934°
orbit number at epoch: 5320

The dashed part of the orbit path shows where the satellite is in the earth's shadow,  

DLR